Weather History for Doha, Qatar

Change the Weather History Date:

Friday, November 8, 2013

  Actual Average Record
Temperature  
Mean Temperature 79 °F -  
Max Temperature 85 °F 82 °F 95 °F (1999)
Min Temperature 73 °F 65 °F 64 °F (1996)
Cooling Degree Days 14    
Growing Degree Days 29 (Base 50)    
Moisture  
Dew Point 63 °F    
Average Humidity 57    
Maximum Humidity 69    
Minimum Humidity 45    
Precipitation  
Precipitation 0.00 in 0.01 in - ()
Sea Level Pressure  
Sea Level Pressure 29.99 in    
Wind  
Wind Speed 3 mph ()    
Max Wind Speed 9 mph    
Max Gust Speed -    
Visibility 6.5 miles    
Events      
Averages and records for this station are not official NWS values.
T = Trace of Precipitation, MM = Missing Value Source: Averaged Metar Reports

Daily Weather History Graph

Daily Weather History Graph

Search for Another Location

Airport:

Trip Planner

Search our weather history database for the weather conditions in past years. The results will help you decide how hot, cold, wet, or windy it might be!

Date:

Astronomy

Nov. 08, 2013 Rise Set
Actual Time 5:45 AM AST 4:48 PM AST
Civil Twilight 5:21 AM AST 5:12 PM AST
Nautical Twilight 4:54 AM AST 5:40 PM AST
Astronomical Twilight 4:27 AM AST 6:07 PM AST
Moon 10:21 AM AST (11/8) 9:42 PM AST (11/8)
Length of Visible Light 11h 50m
Length of Day
11h 02m
Waxing Crescent, 29% of the Moon is Illuminated
Nov 8
Waxing Crescent
Nov 10
First Quarter
Nov 17
Full
Nov 25
Last Quarter
Dec 3
New

Hourly Weather History & Observations

Time (AST) Temp. Heat Index Dew Point Humidity Pressure Visibility Wind Dir Wind Speed Gust Speed Precip Events Conditions
12:00 AM 78.8 °F - 64.4 °F 61% 29.98 in - Variable 2.3 mph - N/A   Clear
12:30 AM 77.0 °F - 64.4 °F 65% 29.98 in - Variable 1.2 mph - N/A   Clear
1:00 AM 77.0 °F - 66.2 °F 69% 29.98 in 6.2 mi Variable 1.2 mph - N/A   Partly Cloudy
1:30 AM 77.0 °F - 64.4 °F 65% 29.98 in - Variable 1.2 mph - N/A   Clear
2:00 AM 75.2 °F - 64.4 °F 69% 29.98 in - Variable 1.2 mph - N/A   Clear
2:30 AM 75.2 °F - 64.4 °F 69% 29.98 in 6.2 mi Variable 2.3 mph - N/A   Partly Cloudy
3:00 AM 75 °F - 64 °F 60% 29.99 in 7 mi 1.2 mph - -  
3:00 AM 75.2 °F - 64.4 °F 69% 29.98 in - Variable 1.2 mph - N/A   Clear
3:30 AM 75.2 °F - 64.4 °F 69% 29.98 in - Variable 1.2 mph - N/A   Clear
4:00 AM 75.2 °F - 62.6 °F 65% 29.98 in - Calm Calm - N/A   Clear
4:30 AM 73.4 °F - 62.6 °F 69% 29.98 in - Variable 2.3 mph - N/A   Clear
5:00 AM 73.4 °F - 62.6 °F 69% 30.01 in 6.2 mi Variable 2.3 mph - N/A   Partly Cloudy
6:00 AM 75.2 °F - 62.6 °F 65% 30.01 in 6.2 mi Calm Calm - N/A   Partly Cloudy
6:30 AM 75.2 °F - 64.4 °F 69% 30.04 in - Variable 1.2 mph - N/A   Clear
7:00 AM 78.8 °F - 64.4 °F 61% 30.04 in - Calm Calm - N/A   Clear
7:30 AM 78.8 °F - 64.4 °F 61% 30.04 in - Variable 2.3 mph - N/A   Clear
8:00 AM 80.6 °F 82.3 °F 64.4 °F 58% 30.04 in - North 3.5 mph - N/A   Clear
8:30 AM 82.4 °F 83.9 °F 64.4 °F 54% 30.04 in - ENE 3.5 mph - N/A   Clear
9:00 AM 82 °F - 65 °F 46% 30.06 in 7 mi NNE 3.5 mph - -   Scattered Clouds
9:00 AM 82.4 °F 83.9 °F 64.4 °F 54% 30.04 in - NNE 3.5 mph - N/A   Clear
9:30 AM 82.4 °F 83.9 °F 64.4 °F 54% 30.04 in - Variable 3.5 mph - N/A   Clear
10:00 AM 82.4 °F 83.4 °F 62.6 °F 51% 30.04 in - SE 4.6 mph - N/A   Clear
10:30 AM 84.2 °F 84.4 °F 60.8 °F 45% 30.04 in - East 6.9 mph - N/A   Clear
11:00 AM 84.2 °F 85.0 °F 62.6 °F 48% 30.01 in - East 5.8 mph - N/A   Clear
11:30 AM 84.2 °F 84.4 °F 60.8 °F 45% 30.01 in - East 5.8 mph - N/A   Clear
12:00 PM 84.2 °F 84.4 °F 60.8 °F 45% 30.01 in - ESE 6.9 mph - N/A   Clear
12:30 PM 84.2 °F 84.4 °F 60.8 °F 45% 29.98 in - ESE 6.9 mph - N/A   Clear
1:00 PM 84.2 °F 85.0 °F 62.6 °F 48% 29.98 in - East 8.1 mph - N/A   Clear
1:30 PM 84.2 °F 85.0 °F 62.6 °F 48% 29.98 in 6.2 mi East 9.2 mph - N/A   Partly Cloudy
2:00 PM 84.2 °F 85.0 °F 62.6 °F 48% 29.95 in 6.2 mi East 8.1 mph - N/A   Partly Cloudy
3:00 PM 84.2 °F 84.4 °F 60.8 °F 45% 29.95 in 6.2 mi East 8.1 mph - N/A   Partly Cloudy
3:30 PM 84.2 °F 84.4 °F 60.8 °F 45% 29.95 in 6.2 mi East 8.1 mph - N/A   Partly Cloudy
4:00 PM 82.4 °F 82.9 °F 60.8 °F 48% 29.95 in 6.2 mi East 6.9 mph - N/A   Partly Cloudy
4:30 PM 82.4 °F 82.9 °F 60.8 °F 48% 29.95 in 6.2 mi East 8.1 mph - N/A   Partly Cloudy
5:00 PM 82.4 °F 82.9 °F 60.8 °F 48% 29.95 in - East 8.1 mph - N/A   Clear
6:00 PM 80.6 °F 81.8 °F 62.6 °F 54% 29.95 in 6.2 mi East 5.8 mph - N/A   Partly Cloudy
7:00 PM 80.6 °F 81.8 °F 62.6 °F 54% 29.98 in 6.2 mi East 5.8 mph - N/A   Partly Cloudy
8:00 PM 80.6 °F 81.8 °F 62.6 °F 54% 29.98 in 6.2 mi East 4.6 mph - N/A   Partly Cloudy
9:00 PM 80 °F - 64 °F 49% 30.00 in 10 mi East 4.6 mph - -  
9:00 PM 80.6 °F 82.3 °F 64.4 °F 58% 29.98 in - East 4.6 mph - N/A   Clear
9:30 PM 78.8 °F - 62.6 °F 57% 29.98 in - East 5.8 mph - N/A   Clear
10:00 PM 78.8 °F - 64.4 °F 61% 29.98 in - East 5.8 mph - N/A   Clear
10:30 PM 78.8 °F - 62.6 °F 57% 29.98 in - East 5.8 mph - N/A   Clear
11:00 PM 78.8 °F - 64.4 °F 61% 29.98 in - East 4.6 mph - N/A   Clear
11:30 PM 78.8 °F - 64.4 °F 61% 29.98 in - East 4.6 mph - N/A   Clear